owner,sensor,date,latitude,longitude,vertical_datum,mass_concentration_of_oxygen_in_sea_water,qcFlag 
DISL,ioos:station:DISL:KATA:1,2012-02-01T00:00:00Z,30.2583,-88.2131,4.002,6.66,1111122 
DISL,ioos:station:DISL:KATA:1,2012-02-01T00:30:00Z,30.2583,-88.2131,3.994,6.43,1111122 
DISL,ioos:station:DISL:KATA:1,2012-02-01T01:00:00Z,30.2583,-88.2131,3.983,6.35,1111122 
DISL,ioos:station:DISL:KATA:1,2012-02-01T01:30:00Z,30.2583,-88.2131,3.982,6.28,1111122 
DISL,ioos:station:DISL:KATA:1,2012-02-01T02:00:00Z,30.2583,-88.2131,3.983,6.17,1111122 
DISL,ioos:station:DISL:KATA:1,2012-02-01T02:30:00Z,30.2583,-88.2131,3.966,5.64,1111122 
DISL,ioos:station:DISL:KATA:1,2012-02-01T03:00:00Z,30.2583,-88.2131,3.935,5.86,1111122 
DISL,ioos:station:DISL:KATA:1,2012-02-01T03:30:00Z,30.2583,-88.2131,3.9,5.89,1111122 
DISL,ioos:station:DISL:KATA:1,2012-02-01T04:00:00Z,30.2583,-88.2131,3.864,6.02,1111122 
DISL,ioos:station:DISL:KATA:1,2012-02-01T04:30:00Z,30.2583,-88.2131,3.825,5.94,1111122 
DISL,ioos:station:DISL:KATA:1,2012-02-01T05:00:00Z,30.2583,-88.2131,3.791,6.06,1111122 
DISL,ioos:station:DISL:KATA:1,2012-02-01T05:30:00Z,30.2583,-88.2131,3.761,6.05,1111122 
DISL,ioos:station:DISL:KATA:1,2012-02-01T06:00:00Z,30.2583,-88.2131,3.738,6.06,1111122 
DISL,ioos:station:DISL:KATA:1,2012-02-01T06:30:00Z,30.2583,-88.2131,3.719,5.93,1111122 
DISL,ioos:station:DISL:KATA:1,2012-02-01T07:00:00Z,30.2583,-88.2131,3.705,5.81,1111122 
DISL,ioos:station:DISL:KATA:1,2012-02-01T07:30:00Z,30.2583,-88.2131,3.691,5.72,1111122 
DISL,ioos:station:DISL:KATA:1,2012-02-01T08:00:00Z,30.2583,-88.2131,3.684,5.62,1111122 
DISL,ioos:station:DISL:KATA:1,2012-02-01T08:30:00Z,30.2583,-88.2131,3.686,5.57,1111122 
DISL,ioos:station:DISL:KATA:1,2012-02-01T09:00:00Z,30.2583,-88.2131,3.683,5.65,1111122 
DISL,ioos:station:DISL:KATA:1,2012-02-01T09:30:00Z,30.2583,-88.2131,3.688,5.65,1111122 
DISL,ioos:station:DISL:KATA:1,2012-02-01T10:00:00Z,30.2583,-88.2131,3.702,5.72,1111122 
DISL,ioos:station:DISL:KATA:1,2012-02-01T10:30:00Z,30.2583,-88.2131,3.71,5.68,1111122 
DISL,ioos:station:DISL:KATA:1,2012-02-01T11:00:00Z,30.2583,-88.2131,3.713,5.7,1111122 
DISL,ioos:station:DISL:KATA:1,2012-02-01T11:30:00Z,30.2583,-88.2131,3.716,5.74,1111122 
DISL,ioos:station:DISL:KATA:1,2012-02-01T12:00:00Z,30.2583,-88.2131,3.719,5.84,1111122 
DISL,ioos:station:DISL:KATA:1,2012-02-01T12:30:00Z,30.2583,-88.2131,3.731,5.91,1111122 
DISL,ioos:station:DISL:KATA:1,2012-02-01T13:00:00Z,30.2583,-88.2131,3.744,5.74,1111122 
DISL,ioos:station:DISL:KATA:1,2012-02-01T13:30:00Z,30.2583,-88.2131,3.768,5.68,1111122 
DISL,ioos:station:DISL:KATA:1,2012-02-01T14:00:00Z,30.2583,-88.2131,3.795,5.97,1111122 
DISL,ioos:station:DISL:KATA:1,2012-02-01T14:30:00Z,30.2583,-88.2131,3.822,5.98,1111122 
DISL,ioos:station:DISL:KATA:1,2012-02-01T15:00:00Z,30.2583,-88.2131,3.859,5.95,1111122 
DISL,ioos:station:DISL:KATA:1,2012-02-01T15:30:00Z,30.2583,-88.2131,3.885,5.9,1111122 
DISL,ioos:station:DISL:KATA:1,2012-02-01T16:00:00Z,30.2583,-88.2131,3.92,5.9,1111122 
DISL,ioos:station:DISL:KATA:1,2012-02-01T16:30:00Z,30.2583,-88.2131,3.943,5.93,1111122 
DISL,ioos:station:DISL:KATA:1,2012-02-01T17:00:00Z,30.2583,-88.2131,3.973,5.98,1111122 
DISL,ioos:station:DISL:KATA:1,2012-02-01T17:30:00Z,30.2583,-88.2131,4.029,6.05,1111122 
DISL,ioos:station:DISL:KATA:1,2012-02-01T18:00:00Z,30.2583,-88.2131,4.061,6.22,1111122 
DISL,ioos:station:DISL:KATA:1,2012-02-01T18:30:00Z,30.2583,-88.2131,4.037,6.47,1111122 
DISL,ioos:station:DISL:KATA:1,2012-02-01T19:00:00Z,30.2583,-88.2131,4.021,6.64,1111122 
DISL,ioos:station:DISL:KATA:1,2012-02-01T19:30:00Z,30.2583,-88.2131,4.036,6.95,1111122 
DISL,ioos:station:DISL:KATA:1,2012-02-01T20:00:00Z,30.2583,-88.2131,4.062,6.96,1111122 
DISL,ioos:station:DISL:KATA:1,2012-02-01T20:30:00Z,30.2583,-88.2131,4.072,6.77,1111122 
DISL,ioos:station:DISL:KATA:1,2012-02-01T21:00:00Z,30.2583,-88.2131,4.099,6.74,1111122 
DISL,ioos:station:DISL:KATA:1,2012-02-01T21:30:00Z,30.2583,-88.2131,4.09,6.87,1111122 
DISL,ioos:station:DISL:KATA:1,2012-02-01T22:00:00Z,30.2583,-88.2131,4.105,6.71,1111122 
DISL,ioos:station:DISL:KATA:1,2012-02-01T22:30:00Z,30.2583,-88.2131,4.091,6.7,1111122 
DISL,ioos:station:DISL:KATA:1,2012-02-01T23:00:00Z,30.2583,-88.2131,4.083,6.65,1111122 
DISL,ioos:station:DISL:KATA:1,2012-02-01T23:30:00Z,30.2583,-88.2131,4.063,6.26,1111122 
DISL,ioos:station:DISL:KATA:1,2012-02-02T00:00:00Z,30.2583,-88.2131,4.039,6.21,1111122 
DISL,ioos:station:DISL:KATA:1,2012-02-02T00:30:00Z,30.2583,-88.2131,4.021,6.11,1111122 
DISL,ioos:station:DISL:KATA:1,2012-02-02T01:00:00Z,30.2583,-88.2131,4.021,6.11,1111122 
DISL,ioos:station:DISL:KATA:1,2012-02-02T01:30:00Z,30.2583,-88.2131,3.994,6.16,1111122 
DISL,ioos:station:DISL:KATA:1,2012-02-02T02:00:00Z,30.2583,-88.2131,3.973,6.15,1111122 
DISL,ioos:station:DISL:KATA:1,2012-02-02T02:30:00Z,30.2583,-88.2131,3.944,6.25,1111122 
DISL,ioos:station:DISL:KATA:1,2012-02-02T03:00:00Z,30.2583,-88.2131,3.927,6.23,1111122 
DISL,ioos:station:DISL:KATA:1,2012-02-02T03:30:00Z,30.2583,-88.2131,3.92,6.2,1111122 
DISL,ioos:station:DISL:KATA:1,2012-02-02T04:00:00Z,30.2583,-88.2131,3.884,5.87,1111122 
DISL,ioos:station:DISL:KATA:1,2012-02-02T04:30:00Z,30.2583,-88.2131,3.839,6.06,1111122 
DISL,ioos:station:DISL:KATA:1,2012-02-02T05:00:00Z,30.2583,-88.2131,3.823,6.05,1111122 
DISL,ioos:station:DISL:KATA:1,2012-02-02T05:30:00Z,30.2583,-88.2131,3.781,6.1,1111122 
DISL,ioos:station:DISL:KATA:1,2012-02-02T06:00:00Z,30.2583,-88.2131,3.765,6.14,1111122 
DISL,ioos:station:DISL:KATA:1,2012-02-02T06:30:00Z,30.2583,-88.2131,3.746,6.11,1111122 
DISL,ioos:station:DISL:KATA:1,2012-02-02T07:00:00Z,30.2583,-88.2131,3.716,6.18,1111122 
DISL,ioos:station:DISL:KATA:1,2012-02-02T07:30:00Z,30.2583,-88.2131,3.681,5.76,1111122 
DISL,ioos:station:DISL:KATA:1,2012-02-02T08:00:00Z,30.2583,-88.2131,3.647,5.87,1111122 
DISL,ioos:station:DISL:KATA:1,2012-02-02T08:30:00Z,30.2583,-88.2131,3.612,5.74,1111122 
DISL,ioos:station:DISL:KATA:1,2012-02-02T09:00:00Z,30.2583,-88.2131,3.595,5.85,1111122 
DISL,ioos:station:DISL:KATA:1,2012-02-02T09:30:00Z,30.2583,-88.2131,3.597,5.74,1111122 
DISL,ioos:station:DISL:KATA:1,2012-02-02T10:00:00Z,30.2583,-88.2131,3.593,5.69,1111122 
DISL,ioos:station:DISL:KATA:1,2012-02-02T10:30:00Z,30.2583,-88.2131,3.587,5.54,1111122 
DISL,ioos:station:DISL:KATA:1,2012-02-02T11:00:00Z,30.2583,-88.2131,3.598,5.45,1111122 
DISL,ioos:station:DISL:KATA:1,2012-02-02T11:30:00Z,30.2583,-88.2131,3.612,4.98,1111122 
DISL,ioos:station:DISL:KATA:1,2012-02-02T12:00:00Z,30.2583,-88.2131,3.621,5.41,1111122 
DISL,ioos:station:DISL:KATA:1,2012-02-02T12:30:00Z,30.2583,-88.2131,3.637,5.3,1111122 
DISL,ioos:station:DISL:KATA:1,2012-02-02T13:00:00Z,30.2583,-88.2131,3.654,5.25,1111122 
DISL,ioos:station:DISL:KATA:1,2012-02-02T13:30:00Z,30.2583,-88.2131,3.674,5.24,1111122 
DISL,ioos:station:DISL:KATA:1,2012-02-02T14:00:00Z,30.2583,-88.2131,3.686,5.3,1111122 
DISL,ioos:station:DISL:KATA:1,2012-02-02T14:30:00Z,30.2583,-88.2131,3.708,5.33,1111122 
DISL,ioos:station:DISL:KATA:1,2012-02-02T15:00:00Z,30.2583,-88.2131,3.742,5.31,1111122 
DISL,ioos:station:DISL:KATA:1,2012-02-02T15:30:00Z,30.2583,-88.2131,3.749,5.24,1111122 
DISL,ioos:station:DISL:KATA:1,2012-02-02T16:00:00Z,30.2583,-88.2131,3.771,5.3,1111122 
DISL,ioos:station:DISL:KATA:1,2012-02-02T16:30:00Z,30.2583,-88.2131,3.793,5.32,1111122 
DISL,ioos:station:DISL:KATA:1,2012-02-02T17:00:00Z,30.2583,-88.2131,3.812,5.34,1111122 
DISL,ioos:station:DISL:KATA:1,2012-02-02T17:30:00Z,30.2583,-88.2131,3.837,5.43,1111122 
DISL,ioos:station:DISL:KATA:1,2012-02-02T18:00:00Z,30.2583,-88.2131,3.857,5.61,1111122 
DISL,ioos:station:DISL:KATA:1,2012-02-02T18:30:00Z,30.2583,-88.2131,3.891,5.7,1111122 
DISL,ioos:station:DISL:KATA:1,2012-02-02T19:00:00Z,30.2583,-88.2131,3.915,5.73,1111122 
DISL,ioos:station:DISL:KATA:1,2012-02-02T19:30:00Z,30.2583,-88.2131,3.943,5.67,1111122 
DISL,ioos:station:DISL:KATA:1,2012-02-02T20:00:00Z,30.2583,-88.2131,3.978,5.69,1111122 
DISL,ioos:station:DISL:KATA:1,2012-02-02T20:30:00Z,30.2583,-88.2131,4.0,5.77,1111122 
DISL,ioos:station:DISL:KATA:1,2012-02-02T21:00:00Z,30.2583,-88.2131,4.034,5.92,1111122 
DISL,ioos:station:DISL:KATA:1,2012-02-02T21:30:00Z,30.2583,-88.2131,4.055,6.01,1111122 
DISL,ioos:station:DISL:KATA:1,2012-02-02T22:00:00Z,30.2583,-88.2131,4.076,6.04,1111122 
DISL,ioos:station:DISL:KATA:1,2012-02-02T22:30:00Z,30.2583,-88.2131,4.097,6.11,1111122 
DISL,ioos:station:DISL:KATA:1,2012-02-02T23:00:00Z,30.2583,-88.2131,4.104,6.11,1111122 
DISL,ioos:station:DISL:KATA:1,2012-02-02T23:30:00Z,30.2583,-88.2131,4.108,6.13,1111122 
DISL,ioos:station:DISL:KATA:1,2012-02-03T00:00:00Z,30.2583,-88.2131,4.11,6.09,1111122 
DISL,ioos:station:DISL:KATA:1,2012-02-03T00:30:00Z,30.2583,-88.2131,4.106,6.09,1111122 
DISL,ioos:station:DISL:KATA:1,2012-02-03T01:00:00Z,30.2583,-88.2131,4.091,6.01,1111122 
DISL,ioos:station:DISL:KATA:1,2012-02-03T01:30:00Z,30.2583,-88.2131,4.089,5.84,1111122 
DISL,ioos:station:DISL:KATA:1,2012-02-03T02:00:00Z,30.2583,-88.2131,4.081,5.84,1111122 
DISL,ioos:station:DISL:KATA:1,2012-02-03T02:30:00Z,30.2583,-88.2131,4.061,5.82,1111122 
DISL,ioos:station:DISL:KATA:1,2012-02-03T03:00:00Z,30.2583,-88.2131,4.022,6.01,1111122 
DISL,ioos:station:DISL:KATA:1,2012-02-03T03:30:00Z,30.2583,-88.2131,4.0,5.97,1111122 
DISL,ioos:station:DISL:KATA:1,2012-02-03T04:00:00Z,30.2583,-88.2131,3.97,5.91,1111122 
DISL,ioos:station:DISL:KATA:1,2012-02-03T04:30:00Z,30.2583,-88.2131,3.93,5.82,1111122 
DISL,ioos:station:DISL:KATA:1,2012-02-03T05:00:00Z,30.2583,-88.2131,3.889,5.79,1111122 
DISL,ioos:station:DISL:KATA:1,2012-02-03T05:30:00Z,30.2583,-88.2131,3.847,5.6,1111122 
DISL,ioos:station:DISL:KATA:1,2012-02-03T06:00:00Z,30.2583,-88.2131,3.804,5.5,1111122 
DISL,ioos:station:DISL:KATA:1,2012-02-03T06:30:00Z,30.2583,-88.2131,3.761,5.41,1111122 
DISL,ioos:station:DISL:KATA:1,2012-02-03T07:00:00Z,30.2583,-88.2131,3.726,5.63,1111122 
DISL,ioos:station:DISL:KATA:1,2012-02-03T07:30:00Z,30.2583,-88.2131,3.69,5.55,1111122 
DISL,ioos:station:DISL:KATA:1,2012-02-03T08:00:00Z,30.2583,-88.2131,3.657,5.54,1111122 
DISL,ioos:station:DISL:KATA:1,2012-02-03T08:30:00Z,30.2583,-88.2131,3.626,5.54,1111122 
DISL,ioos:station:DISL:KATA:1,2012-02-03T09:00:00Z,30.2583,-88.2131,3.605,5.52,1111122 
DISL,ioos:station:DISL:KATA:1,2012-02-03T09:30:00Z,30.2583,-88.2131,3.582,5.53,1111122 
DISL,ioos:station:DISL:KATA:1,2012-02-03T10:00:00Z,30.2583,-88.2131,3.569,5.36,1111122 
DISL,ioos:station:DISL:KATA:1,2012-02-03T10:30:00Z,30.2583,-88.2131,3.568,5.35,1111122 
DISL,ioos:station:DISL:KATA:1,2012-02-03T11:00:00Z,30.2583,-88.2131,3.574,5.39,1111122 
DISL,ioos:station:DISL:KATA:1,2012-02-03T11:30:00Z,30.2583,-88.2131,3.586,5.4,1111122 
DISL,ioos:station:DISL:KATA:1,2012-02-03T12:00:00Z,30.2583,-88.2131,3.577,5.5,1111122 
DISL,ioos:station:DISL:KATA:1,2012-02-03T12:30:00Z,30.2583,-88.2131,3.59,5.52,1111122 
DISL,ioos:station:DISL:KATA:1,2012-02-03T13:00:00Z,30.2583,-88.2131,3.606,5.52,1111122 
DISL,ioos:station:DISL:KATA:1,2012-02-03T13:30:00Z,30.2583,-88.2131,3.632,5.51,1111122 
DISL,ioos:station:DISL:KATA:1,2012-02-03T14:00:00Z,30.2583,-88.2131,3.656,5.49,1111122 
DISL,ioos:station:DISL:KATA:1,2012-02-03T14:30:00Z,30.2583,-88.2131,3.681,5.52,1111122 
DISL,ioos:station:DISL:KATA:1,2012-02-03T15:00:00Z,30.2583,-88.2131,3.713,5.54,1111122 
DISL,ioos:station:DISL:KATA:1,2012-02-03T15:30:00Z,30.2583,-88.2131,3.754,5.64,1111122 
DISL,ioos:station:DISL:KATA:1,2012-02-03T16:00:00Z,30.2583,-88.2131,3.8,5.69,1111122 
DISL,ioos:station:DISL:KATA:1,2012-02-03T16:30:00Z,30.2583,-88.2131,3.84,5.7,1111122 
DISL,ioos:station:DISL:KATA:1,2012-02-03T17:00:00Z,30.2583,-88.2131,3.875,5.68,1111122 
DISL,ioos:station:DISL:KATA:1,2012-02-03T17:30:00Z,30.2583,-88.2131,3.901,5.85,1111122 
DISL,ioos:station:DISL:KATA:1,2012-02-03T18:00:00Z,30.2583,-88.2131,3.925,5.88,1111122 
DISL,ioos:station:DISL:KATA:1,2012-02-03T18:30:00Z,30.2583,-88.2131,3.948,5.93,1111122 
DISL,ioos:station:DISL:KATA:1,2012-02-03T19:00:00Z,30.2583,-88.2131,3.964,5.96,1111122 
DISL,ioos:station:DISL:KATA:1,2012-02-03T19:30:00Z,30.2583,-88.2131,3.983,6.0,1111122 
DISL,ioos:station:DISL:KATA:1,2012-02-03T20:00:00Z,30.2583,-88.2131,4.013,6.05,1111122 
DISL,ioos:station:DISL:KATA:1,2012-02-03T20:30:00Z,30.2583,-88.2131,4.035,6.09,1111122 
DISL,ioos:station:DISL:KATA:1,2012-02-03T21:00:00Z,30.2583,-88.2131,4.056,6.03,1111122 
DISL,ioos:station:DISL:KATA:1,2012-02-03T21:30:00Z,30.2583,-88.2131,4.083,6.09,1111122 
DISL,ioos:station:DISL:KATA:1,2012-02-03T22:00:00Z,30.2583,-88.2131,4.106,6.0,1111122 
DISL,ioos:station:DISL:KATA:1,2012-02-03T22:30:00Z,30.2583,-88.2131,4.135,6.09,1111122 
DISL,ioos:station:DISL:KATA:1,2012-02-03T23:00:00Z,30.2583,-88.2131,4.154,6.1,1111122 
DISL,ioos:station:DISL:KATA:1,2012-02-03T23:30:00Z,30.2583,-88.2131,4.163,6.12,1111122 
DISL,ioos:station:DISL:KATA:1,2012-02-04T00:00:00Z,30.2583,-88.2131,4.172,6.25,1111122 
DISL,ioos:station:DISL:KATA:1,2012-02-04T00:30:00Z,30.2583,-88.2131,4.168,6.33,1111122 
DISL,ioos:station:DISL:KATA:1,2012-02-04T01:00:00Z,30.2583,-88.2131,4.162,6.43,1111122 
DISL,ioos:station:DISL:KATA:1,2012-02-04T01:30:00Z,30.2583,-88.2131,4.146,6.31,1111122 
DISL,ioos:station:DISL:KATA:1,2012-02-04T02:00:00Z,30.2583,-88.2131,4.144,6.38,1111122 
DISL,ioos:station:DISL:KATA:1,2012-02-04T02:30:00Z,30.2583,-88.2131,4.114,6.21,1111122 
DISL,ioos:station:DISL:KATA:1,2012-02-04T03:00:00Z,30.2583,-88.2131,4.1,6.17,1111122 
DISL,ioos:station:DISL:KATA:1,2012-02-04T03:30:00Z,30.2583,-88.2131,4.081,6.11,1111122 
DISL,ioos:station:DISL:KATA:1,2012-02-04T04:00:00Z,30.2583,-88.2131,4.07,6.15,1111122 
DISL,ioos:station:DISL:KATA:1,2012-02-04T04:30:00Z,30.2583,-88.2131,4.047,6.15,1111122 
DISL,ioos:station:DISL:KATA:1,2012-02-04T05:00:00Z,30.2583,-88.2131,4.005,6.18,1111122 
DISL,ioos:station:DISL:KATA:1,2012-02-04T05:30:00Z,30.2583,-88.2131,3.952,6.1,1111122 
DISL,ioos:station:DISL:KATA:1,2012-02-04T06:00:00Z,30.2583,-88.2131,3.917,6.02,1111122 
DISL,ioos:station:DISL:KATA:1,2012-02-04T06:30:00Z,30.2583,-88.2131,3.875,6.21,1111122 
DISL,ioos:station:DISL:KATA:1,2012-02-04T07:00:00Z,30.2583,-88.2131,3.842,6.48,1111122 
DISL,ioos:station:DISL:KATA:1,2012-02-04T07:30:00Z,30.2583,-88.2131,3.8,5.82,1111122 
DISL,ioos:station:DISL:KATA:1,2012-02-04T08:00:00Z,30.2583,-88.2131,3.759,5.58,1111122 
DISL,ioos:station:DISL:KATA:1,2012-02-04T08:30:00Z,30.2583,-88.2131,3.71,5.84,1111122 
DISL,ioos:station:DISL:KATA:1,2012-02-04T09:00:00Z,30.2583,-88.2131,3.679,5.74,1111122 
DISL,ioos:station:DISL:KATA:1,2012-02-04T09:30:00Z,30.2583,-88.2131,3.66,5.66,1111122 
DISL,ioos:station:DISL:KATA:1,2012-02-04T10:00:00Z,30.2583,-88.2131,3.646,5.6,1111122 
DISL,ioos:station:DISL:KATA:1,2012-02-04T10:30:00Z,30.2583,-88.2131,3.632,5.61,1111122 
DISL,ioos:station:DISL:KATA:1,2012-02-04T11:00:00Z,30.2583,-88.2131,3.632,5.43,1111122 
DISL,ioos:station:DISL:KATA:1,2012-02-04T11:30:00Z,30.2583,-88.2131,3.627,5.7,1111122 
DISL,ioos:station:DISL:KATA:1,2012-02-04T12:00:00Z,30.2583,-88.2131,3.622,5.65,1111122 
DISL,ioos:station:DISL:KATA:1,2012-02-04T12:30:00Z,30.2583,-88.2131,3.606,5.7,1111122 
DISL,ioos:station:DISL:KATA:1,2012-02-04T13:00:00Z,30.2583,-88.2131,3.596,5.56,1111122 
DISL,ioos:station:DISL:KATA:1,2012-02-04T13:30:00Z,30.2583,-88.2131,3.584,5.45,1111122 
DISL,ioos:station:DISL:KATA:1,2012-02-04T14:00:00Z,30.2583,-88.2131,3.573,5.42,1111122 
DISL,ioos:station:DISL:KATA:1,2012-02-04T14:30:00Z,30.2583,-88.2131,3.589,5.38,1111122 
DISL,ioos:station:DISL:KATA:1,2012-02-04T15:00:00Z,30.2583,-88.2131,3.608,5.18,1111122 
DISL,ioos:station:DISL:KATA:1,2012-02-04T15:30:00Z,30.2583,-88.2131,3.646,4.89,1111122 
DISL,ioos:station:DISL:KATA:1,2012-02-04T16:00:00Z,30.2583,-88.2131,3.687,5.01,1111122 
DISL,ioos:station:DISL:KATA:1,2012-02-04T16:30:00Z,30.2583,-88.2131,3.721,5.28,1111122 
DISL,ioos:station:DISL:KATA:1,2012-02-04T17:00:00Z,30.2583,-88.2131,3.762,5.69,1111122 
DISL,ioos:station:DISL:KATA:1,2012-02-04T17:30:00Z,30.2583,-88.2131,3.796,5.9,1111122 
DISL,ioos:station:DISL:KATA:1,2012-02-04T18:00:00Z,30.2583,-88.2131,3.819,6.04,1111122 
DISL,ioos:station:DISL:KATA:1,2012-02-04T18:30:00Z,30.2583,-88.2131,3.837,6.21,1111122 
DISL,ioos:station:DISL:KATA:1,2012-02-04T19:00:00Z,30.2583,-88.2131,3.873,6.38,1111122 
DISL,ioos:station:DISL:KATA:1,2012-02-04T19:30:00Z,30.2583,-88.2131,3.903,6.34,1111122 
DISL,ioos:station:DISL:KATA:1,2012-02-04T20:00:00Z,30.2583,-88.2131,3.934,6.35,1111122 
DISL,ioos:station:DISL:KATA:1,2012-02-04T20:30:00Z,30.2583,-88.2131,3.965,6.24,1111122 
DISL,ioos:station:DISL:KATA:1,2012-02-04T21:00:00Z,30.2583,-88.2131,3.992,6.26,1111122 
DISL,ioos:station:DISL:KATA:1,2012-02-04T21:30:00Z,30.2583,-88.2131,4.012,6.26,1111122 
DISL,ioos:station:DISL:KATA:1,2012-02-04T22:00:00Z,30.2583,-88.2131,4.047,6.35,1111122 
DISL,ioos:station:DISL:KATA:1,2012-02-04T22:30:00Z,30.2583,-88.2131,4.066,6.43,1111122 
DISL,ioos:station:DISL:KATA:1,2012-02-04T23:00:00Z,30.2583,-88.2131,4.106,6.38,1111122 
DISL,ioos:station:DISL:KATA:1,2012-02-04T23:30:00Z,30.2583,-88.2131,4.136,6.37,1111122 
DISL,ioos:station:DISL:KATA:1,2012-02-05T00:00:00Z,30.2583,-88.2131,4.163,6.31,1111122 
DISL,ioos:station:DISL:KATA:1,2012-02-05T00:30:00Z,30.2583,-88.2131,4.181,6.36,1111122 
DISL,ioos:station:DISL:KATA:1,2012-02-05T01:00:00Z,30.2583,-88.2131,4.191,6.32,1111122 
DISL,ioos:station:DISL:KATA:1,2012-02-05T01:30:00Z,30.2583,-88.2131,4.201,6.37,1111122 
DISL,ioos:station:DISL:KATA:1,2012-02-05T02:00:00Z,30.2583,-88.2131,4.196,6.41,1111122 
DISL,ioos:station:DISL:KATA:1,2012-02-05T02:30:00Z,30.2583,-88.2131,4.185,6.48,1111122 
DISL,ioos:station:DISL:KATA:1,2012-02-05T03:00:00Z,30.2583,-88.2131,4.177,6.43,1111122 
DISL,ioos:station:DISL:KATA:1,2012-02-05T03:30:00Z,30.2583,-88.2131,4.158,6.26,1111122 
DISL,ioos:station:DISL:KATA:1,2012-02-05T04:00:00Z,30.2583,-88.2131,4.135,6.34,1111122 
DISL,ioos:station:DISL:KATA:1,2012-02-05T04:30:00Z,30.2583,-88.2131,4.116,5.92,1111122 
DISL,ioos:station:DISL:KATA:1,2012-02-05T05:00:00Z,30.2583,-88.2131,4.088,5.82,1111122 
DISL,ioos:station:DISL:KATA:1,2012-02-05T05:30:00Z,30.2583,-88.2131,4.054,5.79,1111122 
DISL,ioos:station:DISL:KATA:1,2012-02-05T06:00:00Z,30.2583,-88.2131,4.012,5.89,1111122 
DISL,ioos:station:DISL:KATA:1,2012-02-05T06:30:00Z,30.2583,-88.2131,3.961,5.93,1111122 
DISL,ioos:station:DISL:KATA:1,2012-02-05T07:00:00Z,30.2583,-88.2131,3.898,5.97,1111122 
DISL,ioos:station:DISL:KATA:1,2012-02-05T07:30:00Z,30.2583,-88.2131,3.846,5.91,1111122 
DISL,ioos:station:DISL:KATA:1,2012-02-05T08:00:00Z,30.2583,-88.2131,3.796,5.61,1111122 
DISL,ioos:station:DISL:KATA:1,2012-02-05T08:30:00Z,30.2583,-88.2131,3.742,5.69,1111122 
DISL,ioos:station:DISL:KATA:1,2012-02-05T09:00:00Z,30.2583,-88.2131,3.698,5.79,1111122 
DISL,ioos:station:DISL:KATA:1,2012-02-05T09:30:00Z,30.2583,-88.2131,3.669,5.93,1111122 
DISL,ioos:station:DISL:KATA:1,2012-02-05T10:00:00Z,30.2583,-88.2131,3.639,5.87,1111122 
DISL,ioos:station:DISL:KATA:1,2012-02-05T10:30:00Z,30.2583,-88.2131,3.625,5.62,1111122 
DISL,ioos:station:DISL:KATA:1,2012-02-05T11:00:00Z,30.2583,-88.2131,3.615,5.48,1111122 
DISL,ioos:station:DISL:KATA:1,2012-02-05T11:30:00Z,30.2583,-88.2131,3.605,5.28,1111122 
DISL,ioos:station:DISL:KATA:1,2012-02-05T12:00:00Z,30.2583,-88.2131,3.607,5.06,1111122 
DISL,ioos:station:DISL:KATA:1,2012-02-05T12:30:00Z,30.2583,-88.2131,3.612,5.63,1111122 
DISL,ioos:station:DISL:KATA:1,2012-02-05T13:00:00Z,30.2583,-88.2131,3.622,5.62,1111122 
DISL,ioos:station:DISL:KATA:1,2012-02-05T13:30:00Z,30.2583,-88.2131,3.609,5.6,1111122 
DISL,ioos:station:DISL:KATA:1,2012-02-05T14:00:00Z,30.2583,-88.2131,3.611,5.61,1111122 
DISL,ioos:station:DISL:KATA:1,2012-02-05T14:30:00Z,30.2583,-88.2131,3.613,5.6,1111122 
DISL,ioos:station:DISL:KATA:1,2012-02-05T15:00:00Z,30.2583,-88.2131,3.618,5.64,1111122 
DISL,ioos:station:DISL:KATA:1,2012-02-05T15:30:00Z,30.2583,-88.2131,3.635,5.63,1111122 
DISL,ioos:station:DISL:KATA:1,2012-02-05T16:00:00Z,30.2583,-88.2131,3.672,5.64,1111122 
DISL,ioos:station:DISL:KATA:1,2012-02-05T16:30:00Z,30.2583,-88.2131,3.694,5.61,1111122 
DISL,ioos:station:DISL:KATA:1,2012-02-05T17:00:00Z,30.2583,-88.2131,3.724,5.58,1111122 
DISL,ioos:station:DISL:KATA:1,2012-02-05T17:30:00Z,30.2583,-88.2131,3.752,5.45,1111122 
DISL,ioos:station:DISL:KATA:1,2012-02-05T18:00:00Z,30.2583,-88.2131,3.801,5.45,1111122 
DISL,ioos:station:DISL:KATA:1,2012-02-05T18:30:00Z,30.2583,-88.2131,3.847,5.42,1111122 
DISL,ioos:station:DISL:KATA:1,2012-02-05T19:00:00Z,30.2583,-88.2131,3.878,5.47,1111122 
DISL,ioos:station:DISL:KATA:1,2012-02-05T19:30:00Z,30.2583,-88.2131,3.897,5.47,1111122 
DISL,ioos:station:DISL:KATA:1,2012-02-05T20:00:00Z,30.2583,-88.2131,3.911,5.49,1111122 
DISL,ioos:station:DISL:KATA:1,2012-02-05T20:30:00Z,30.2583,-88.2131,3.934,5.5,1111122 
DISL,ioos:station:DISL:KATA:1,2012-02-05T21:00:00Z,30.2583,-88.2131,3.97,5.47,1111122 
DISL,ioos:station:DISL:KATA:1,2012-02-05T21:30:00Z,30.2583,-88.2131,3.989,5.39,1111122 
DISL,ioos:station:DISL:KATA:1,2012-02-05T22:00:00Z,30.2583,-88.2131,3.997,5.41,1111122 
DISL,ioos:station:DISL:KATA:1,2012-02-05T22:30:00Z,30.2583,-88.2131,4.043,5.41,1111122 
DISL,ioos:station:DISL:KATA:1,2012-02-05T23:00:00Z,30.2583,-88.2131,4.086,5.44,1111122 
DISL,ioos:station:DISL:KATA:1,2012-02-05T23:30:00Z,30.2583,-88.2131,4.108,5.49,1111122 
DISL,ioos:station:DISL:KATA:1,2012-02-06T00:00:00Z,30.2583,-88.2131,4.142,5.53,1111122 
DISL,ioos:station:DISL:KATA:1,2012-02-06T00:30:00Z,30.2583,-88.2131,4.149,5.65,1111122 
DISL,ioos:station:DISL:KATA:1,2012-02-06T01:00:00Z,30.2583,-88.2131,4.151,5.94,1111122 
DISL,ioos:station:DISL:KATA:1,2012-02-06T01:30:00Z,30.2583,-88.2131,4.171,5.86,1111122 
DISL,ioos:station:DISL:KATA:1,2012-02-06T02:00:00Z,30.2583,-88.2131,4.164,5.6,1111122 
DISL,ioos:station:DISL:KATA:1,2012-02-06T02:30:00Z,30.2583,-88.2131,4.164,5.51,1111122 
DISL,ioos:station:DISL:KATA:1,2012-02-06T03:00:00Z,30.2583,-88.2131,4.159,5.77,1111122 
DISL,ioos:station:DISL:KATA:1,2012-02-06T03:30:00Z,30.2583,-88.2131,4.159,5.57,1111122 
DISL,ioos:station:DISL:KATA:1,2012-02-06T04:00:00Z,30.2583,-88.2131,4.101,5.47,1111122 
DISL,ioos:station:DISL:KATA:1,2012-02-06T04:30:00Z,30.2583,-88.2131,4.041,5.14,1111122 
DISL,ioos:station:DISL:KATA:1,2012-02-06T05:00:00Z,30.2583,-88.2131,4.024,5.15,1111122 
DISL,ioos:station:DISL:KATA:1,2012-02-06T05:30:00Z,30.2583,-88.2131,3.988,5.16,1111122 
DISL,ioos:station:DISL:KATA:1,2012-02-06T06:00:00Z,30.2583,-88.2131,3.958,5.08,1111122 
DISL,ioos:station:DISL:KATA:1,2012-02-06T06:30:00Z,30.2583,-88.2131,3.929,4.94,1111122 
DISL,ioos:station:DISL:KATA:1,2012-02-06T07:00:00Z,30.2583,-88.2131,3.861,4.92,1111122 
DISL,ioos:station:DISL:KATA:1,2012-02-06T07:30:00Z,30.2583,-88.2131,3.801,5.02,1111122 
DISL,ioos:station:DISL:KATA:1,2012-02-06T08:00:00Z,30.2583,-88.2131,3.724,4.94,1111122 
DISL,ioos:station:DISL:KATA:1,2012-02-06T08:30:00Z,30.2583,-88.2131,3.65,5.08,1111122 
DISL,ioos:station:DISL:KATA:1,2012-02-06T09:00:00Z,30.2583,-88.2131,3.59,5.17,1111122 
DISL,ioos:station:DISL:KATA:1,2012-02-06T09:30:00Z,30.2583,-88.2131,3.548,5.09,1111122 
DISL,ioos:station:DISL:KATA:1,2012-02-06T10:00:00Z,30.2583,-88.2131,3.503,5.2,1111122 
DISL,ioos:station:DISL:KATA:1,2012-02-06T10:30:00Z,30.2583,-88.2131,3.475,4.88,1111122 
DISL,ioos:station:DISL:KATA:1,2012-02-06T11:00:00Z,30.2583,-88.2131,3.459,4.84,1111122 
DISL,ioos:station:DISL:KATA:1,2012-02-06T11:30:00Z,30.2583,-88.2131,3.458,4.71,1111122 
DISL,ioos:station:DISL:KATA:1,2012-02-06T12:00:00Z,30.2583,-88.2131,3.463,4.59,1111122 
DISL,ioos:station:DISL:KATA:1,2012-02-06T12:30:00Z,30.2583,-88.2131,3.483,4.56,1111122 
DISL,ioos:station:DISL:KATA:1,2012-02-06T13:00:00Z,30.2583,-88.2131,3.5,4.51,1111122 
DISL,ioos:station:DISL:KATA:1,2012-02-06T13:30:00Z,30.2583,-88.2131,3.529,4.42,1111122 
DISL,ioos:station:DISL:KATA:1,2012-02-06T14:00:00Z,30.2583,-88.2131,3.546,4.39,1111122 
DISL,ioos:station:DISL:KATA:1,2012-02-06T14:30:00Z,30.2583,-88.2131,3.565,4.45,1111122 
DISL,ioos:station:DISL:KATA:1,2012-02-06T15:00:00Z,30.2583,-88.2131,3.58,4.5,1111122 
DISL,ioos:station:DISL:KATA:1,2012-02-06T15:30:00Z,30.2583,-88.2131,3.61,4.52,1111122 